Zurück zum Katalog

METEOR 2-12 DEB

AktivPO
NORAD 45518·DEBRIS·🇷🇺 Russia

Gestartet Feb 6, 1985 von Plesetsk Cosmodrome

Loading…

Nächste Überflüge (nächste 24 Stunden)

TLE

AktuellSource: Space-Track

Epoche: Sep 14, 2026, 03:07 UTC

1 45518U 85013D   26257.13043346  .00001779  00000-0  10789-2 0  9997
2 45518  82.5271 195.5895 0022133 163.9035 196.2845 14.05753172133401

Verfolge METEOR 2-12 DEB in Echtzeit mit AllMySat

Download on the App Store